Temperature
5 4 4 5 5 6 6 6 6 7 8 8 8 9 10 10 10 10 11 11 12 13 14 14 14 14 14 13 13 13 13 13 13 12 12 12 12 12 12 12 12 12 12 11
4 4 5 6 6 5 5 5 5 7 8 8 8 8 9 9 10 11 11 11 12 13 13 13 14 14 14 14 13 13 14 13 13 13 13 13 13 12 12 12 12 12 12 11
3 4 5 6 5 5 5 5 5 6 7 8 7 8 9 9 10 11 11 12 12 13 13 13 14 14 14 14 14 14 14 14 14 14 13 12 12 12 12 12 12 12 12 12
4 4 5 5 5 5 5 6 6 6 6 6 7 6 8 9 9 10 10 11 12 13 13 13 13 14 14 14 14 14 14 14 14 14 13 13 13 13 14 13 13 13 12 12
4 4 5 5 5 6 5 6 6 6 5 5 6 6 7 8 9 10 10 11 12 13 13 13 14 14 14 15 14 15 15 15 14 14 14 14 14 14 14 13 13 13 12 12
4 5 5 5 6 6 6 6 6 5 5 5 5 6 7 7 8 9 10 11 12 12 13 13 14 14 14 14 14 14 14 15 15 14 14 14 14 14 14 14 13 13 13 12
3 4 5 5 5 5 5 4 4 4 4 5 6 6 7 8 9 9 10 11 12 12 13 13 13 13 14 14 14 14 14 14 15 14 14 15 15 15 15 14 14 14 13 13
2 3 4 5 5 5 5 5 4 4 4 5 6 6 7 8 9 10 10 11 11 12 12 12 13 13 14 14 14 15 15 15 15 15 15 15 15 15 14 15 14 14 14 14
2 3 4 5 5 5 4 4 5 4 4 5 5 6 7 8 8 8 9 10 10 11 11 12 12 13 14 14 14 15 15 15 15 15 15 15 15 15 15 15 14 14 14 14
2 2 3 4 5 5 5 4 4 4 4 5 5 6 6 8 8 8 8 8 9 10 11 11 12 12 13 14 14 15 15 16 16 16 16 15 15 15 15 15 14 14 14 14
2 1 2 3 3 4 4 4 4 3 4 4 5 6 8 8 8 8 8 8 9 9 10 10 11 12 13 13 14 14 15 15 15 16 16 15 15 15 15 15 14 14 14 14
2 1 1 2 3 4 4 4 3 3 3 3 4 6 8 7 7 8 8 8 8 8 9 10 10 11 12 13 13 14 14 15 15 16 16 15 15 15 15 15 15 14 14 13
2 1 1 2 2 2 2 3 3 3 3 3 4 6 8 7 7 7 7 8 8 8 8 9 10 11 11 12 13 13 14 14 15 15 15 15 15 14 15 15 14 14 13 13
3 1 1 1 1 1 1 2 2 2 2 3 4 5 6 7 6 6 6 7 7 7 8 8 9 10 10 11 12 13 13 14 14 14 14 14 14 15 15 14 14 13 13 12
1 0 0 1 2 2 2 2 2 2 2 3 4 4 5 6 5 6 6 6 6 6 7 7 8 9 9 10 11 12 13 13 13 14 14 14 14 14 14 13 13 13 12 12
-0 0 -0 0 1 2 2 3 3 3 3 3 3 4 5 5 5 5 5 5 5 5 6 6 7 8 9 10 11 12 12 13 13 13 13 13 13 13 13 13 13 12 12 12
-1 -0 -0 -0 1 1 2 3 3 3 3 3 3 4 5 5 5 5 5 4 4 5 5 6 6 7 8 9 10 11 12 12 12 13 13 13 13 12 12 12 12 12 11 11
-1 -1 -0 -0 -0 0 2 3 3 3 3 3 3 4 4 4 5 5 5 4 4 5 5 5 6 7 8 9 10 10 11 12 12 12 12 12 12 12 12 12 11 11 11 11
-1 -0 -1 -1 -1 0 2 3 3 2 3 3 3 4 4 4 4 4 5 4 4 5 5 5 6 7 7 8 9 10 10 11 11 11 12 12 12 12 12 11 11 11 11 10
-1 -1 -1 -1 -0 1 2 3 3 3 2 3 3 3 3 3 3 3 5 4 4 5 5 5 6 6 7 8 9 9 10 10 10 11 11 12 11 11 11 11 11 11 11 11
-1 -1 -1 -1 -0 1 2 2 3 2 2 3 2 2 2 2 3 4 4 4 4 5 5 5 6 6 6 7 8 8 9 9 10 10 10 11 11 11 11 11 11 10 10 10
-1 -1 -1 -1 -1 1 2 2 2 2 3 3 3 3 3 3 3 4 4 4 4 5 5 5 5 6 6 7 7 8 8 9 9 9 10 10 10 10 10 10 10 10 9 9
-1 -0 -0 -0 1 2 2 2 3 3 2 3 3 3 3 2 3 3 3 3 4 4 5 5 5 5 6 6 7 7 7 8 8 8 9 9 9 9 10 9 9 9 9 9
-1 -1 -1 -1 -0 1 2 2 2 3 2 2 2 2 2 2 2 2 3 3 3 4 4 5 5 5 5 6 6 6 7 7 8 8 8 8 9 9 9 9 9 9 9 9
-1 -1 -1 -1 -0 0 1 2 2 2 2 2 2 2 2 2 2 2 2 3 3 3 4 4 4 5 5 5 6 6 6 6 7 7 7 8 8 8 8 8 8 9 9 9
-2 -1 -1 -0 0 -0 0 2 2 1 1 1 1 1 2 1 1 2 2 2 3 3 4 4 4 4 5 5 5 6 6 6 6 7 7 7 7 8 8 8 8 8 8 8
Wind_Speed
1 2 6 8 10 10 8 9 11 12 8 8 13 17 16 12 10 11 11 12 13 15 14 11 12 13 13 14 16 17 18 18 16 14 13 13 13 11 10 10 13 16 16 16
2 7 10 8 7 8 10 11 12 11 8 8 12 17 15 13 13 13 14 13 14 13 10 10 12 13 15 17 18 19 19 20 19 16 14 11 9 8 8 8 11 16 16 16
6 6 5 6 7 8 10 10 10 11 10 7 9 11 12 10 11 11 12 13 13 14 14 12 13 15 15 17 19 19 21 20 21 17 12 9 7 6 8 10 11 13 16 16
6 5 5 7 8 7 10 8 10 11 8 5 3 7 8 8 10 11 11 11 12 13 12 12 13 14 16 18 18 19 20 20 20 19 17 17 14 13 13 11 11 11 14 15
5 4 6 8 8 6 6 6 6 8 7 6 5 6 8 6 8 10 10 11 11 11 11 12 13 15 16 16 16 17 18 19 19 20 20 20 16 13 8 8 11 12 12 14
7 5 4 5 5 6 5 3 5 4 2 5 6 6 7 5 7 7 8 9 10 9 10 11 11 11 12 12 13 15 17 19 19 21 21 21 20 15 13 13 14 13 10 11
7 5 4 3 4 4 1 0 2 2 2 6 4 6 8 7 6 7 8 8 8 7 8 9 9 10 11 12 13 15 17 19 20 21 22 22 21 19 18 16 15 13 11 11
5 7 4 2 2 3 3 3 2 2 3 4 3 7 7 6 6 5 6 5 5 5 7 9 9 10 11 12 14 15 17 19 20 21 22 21 20 17 15 15 14 15 13 13
4 6 5 6 4 2 2 3 2 2 3 4 5 6 7 5 5 5 5 5 6 6 6 7 8 9 11 13 15 17 18 18 19 21 21 20 20 18 16 15 14 13 11 11
3 7 7 6 3 3 3 1 1 1 3 4 5 5 4 5 5 6 7 7 8 8 7 6 6 8 9 11 13 14 17 18 18 19 19 17 19 19 16 15 16 15 14 13
2 4 7 5 2 3 1 1 2 2 3 3 4 6 3 3 4 7 8 9 9 9 8 6 6 7 7 8 10 12 14 15 15 17 17 17 17 17 16 15 16 15 14 14
3 3 6 7 6 3 2 3 3 2 5 4 5 7 3 3 5 7 10 11 10 9 7 6 6 5 5 7 8 11 13 14 15 16 16 17 16 15 16 16 16 15 15 15
3 2 5 7 4 3 2 2 2 3 4 5 6 8 5 9 10 10 11 12 11 10 9 7 6 5 5 6 7 9 11 13 13 13 14 15 15 16 16 16 15 15 15 14
5 4 6 8 8 5 7 8 6 5 6 7 10 14 16 14 14 14 12 11 11 11 9 7 6 6 5 5 6 8 9 10 11 12 14 15 16 17 16 15 14 14 15 15
1 5 7 12 13 11 13 14 12 11 11 11 12 14 17 14 13 12 11 11 12 12 11 9 8 6 5 5 5 6 7 8 10 12 13 14 14 13 13 13 13 13 14 14
2 5 5 9 10 11 16 17 16 15 13 14 16 18 13 10 8 8 9 9 11 12 12 11 9 7 6 5 4 5 7 8 10 12 12 12 12 13 13 14 13 13 13 13
3 3 4 7 7 8 9 9 10 8 7 9 13 13 9 9 10 8 7 8 10 11 11 11 9 8 7 6 5 5 7 7 9 10 10 11 13 13 14 14 14 14 14 13
7 5 4 5 4 7 8 4 6 9 9 9 10 10 9 10 9 6 5 6 9 10 11 10 9 8 7 6 4 4 5 7 9 10 10 11 12 13 13 14 14 14 12 12
11 7 4 3 5 9 8 5 3 5 7 7 9 10 8 8 6 5 5 6 8 9 9 9 7 7 6 5 3 2 4 6 8 10 11 11 12 13 14 14 14 12 11 11
7 7 5 4 5 7 6 4 4 2 6 5 5 7 7 6 6 8 9 9 10 10 9 8 6 5 5 4 2 3 4 6 8 9 10 10 12 13 14 14 12 10 11 11
2 4 8 9 8 9 7 5 1 1 6 5 5 6 5 4 6 9 10 10 10 9 9 7 6 5 5 3 1 2 4 6 6 6 7 9 10 12 12 11 11 12 11 11
6 5 6 6 7 9 4 1 3 6 5 6 6 6 7 8 9 9 9 11 11 10 9 7 6 6 5 3 1 2 3 3 4 6 7 8 9 9 11 12 11 12 13 12
8 8 5 8 9 6 3 6 6 5 6 7 7 8 8 9 9 9 10 11 11 10 9 7 5 6 5 3 1 2 2 2 4 7 8 8 9 9 11 13 13 12 12 11
6 5 5 7 10 9 8 7 7 7 8 9 9 9 8 10 10 10 10 10 10 10 8 7 6 5 5 4 3 3 2 3 5 7 8 8 9 9 10 10 11 11 11 11
8 5 6 9 10 9 8 8 8 9 9 10 10 9 8 9 11 10 10 11 10 10 8 6 6 6 6 4 4 2 3 4 5 7 8 8 8 9 9 8 8 9 8 11
7 9 8 10 9 7 9 8 9 10 10 11 11 11 10 9 11 11 10 10 9 10 8 7 7 6 5 4 4 3 3 5 6 7 8 7 7 7 8 8 7 6 8 11
Wind_Direction
246 229 238 234 228 246 263 269 269 273 277 271 264 267 271 267 251 243 240 237 234 232 226 212 206 200 196 197 196 196 193 188 183 184 184 184 188 187 186 186 184 184 183 180
312 253 250 253 256 261 260 268 272 282 278 273 269 270 269 259 249 238 236 236 233 236 227 212 203 200 198 199 198 198 197 191 188 190 189 188 180 182 183 183 186 188 185 183
239 262 278 270 264 264 262 252 260 273 296 275 273 276 257 253 247 243 238 237 236 230 226 216 205 201 199 201 201 201 200 195 193 187 179 169 162 162 179 191 193 192 189 186
266 269 282 278 265 257 272 246 257 272 282 279 256 282 272 253 250 246 239 234 234 233 226 218 209 204 204 205 202 201 201 198 194 186 184 182 187 193 197 191 190 186 188 188
278 274 276 271 268 253 252 258 260 264 265 277 244 251 277 245 246 245 237 229 232 229 220 214 211 208 210 207 202 201 200 198 195 191 190 190 196 197 182 173 180 186 189 189
264 265 262 260 283 268 265 299 284 267 241 257 228 218 275 237 231 245 238 233 231 224 218 217 215 210 212 207 204 200 199 199 195 195 194 194 196 189 178 181 187 190 190 191
316 300 281 274 304 305 264 3 320 320 235 248 224 224 254 251 245 239 242 241 235 228 223 222 218 212 213 209 205 202 199 201 197 197 199 199 198 193 192 189 190 188 189 194
325 311 303 296 262 275 248 193 216 247 241 282 254 236 254 262 265 266 265 269 269 252 234 226 220 217 217 214 208 203 201 202 198 199 202 201 198 197 198 193 190 192 195 195
313 296 303 293 268 236 261 222 225 266 285 268 256 273 295 292 314 318 318 314 294 278 258 244 235 224 219 215 209 205 203 203 199 200 201 201 199 198 198 193 191 192 191 185
265 288 294 301 295 231 223 209 124 231 264 262 266 260 266 309 316 332 337 328 311 297 281 264 254 238 229 221 212 207 204 204 200 198 199 201 200 200 197 190 192 192 187 180
267 275 301 323 284 261 239 227 211 235 252 260 280 276 238 283 334 336 330 328 321 312 295 283 273 253 237 224 211 206 205 203 201 198 198 196 198 196 192 193 194 191 185 181
280 264 279 272 264 261 232 228 190 240 267 250 270 273 293 346 346 339 333 332 329 321 312 303 290 272 245 224 212 206 203 202 202 198 195 195 194 191 191 194 192 187 184 184
299 285 310 323 335 357 303 265 239 248 258 246 249 268 305 337 339 335 332 336 338 337 330 323 313 300 272 240 220 210 205 201 198 193 191 190 190 189 192 194 190 185 183 180
289 236 225 248 261 276 283 279 267 245 247 254 248 272 295 315 322 327 332 335 336 339 335 326 316 306 293 264 230 213 208 198 190 186 187 189 191 192 192 189 185 183 181 179
254 256 250 259 266 265 265 270 265 250 244 250 264 270 283 300 307 315 323 332 337 339 339 334 325 315 306 290 254 217 208 197 185 183 186 191 189 186 181 179 180 179 179 179
251 265 278 276 269 268 269 265 259 254 250 251 265 274 277 287 300 311 320 329 331 331 333 332 327 322 312 299 273 229 207 195 184 184 188 182 176 176 177 178 176 174 176 174
243 245 279 277 299 302 269 250 243 242 239 239 255 267 293 301 306 306 309 318 319 322 327 328 320 314 308 298 277 237 207 189 183 182 180 175 173 175 177 174 173 174 175 172
223 222 246 280 318 263 253 246 240 245 253 249 260 278 290 291 294 287 291 310 316 320 324 322 316 314 314 305 287 241 196 181 179 176 176 175 174 174 172 172 175 174 171 172
210 213 230 251 266 273 284 276 247 245 268 263 261 280 295 306 311 293 305 313 307 307 310 308 304 303 309 307 290 214 183 177 178 179 179 176 174 172 171 174 175 168 165 167
200 209 223 231 251 259 268 288 294 264 274 294 286 296 307 334 319 301 314 313 310 312 314 313 315 317 320 311 286 183 177 178 187 188 182 176 172 172 173 173 167 160 161 161
194 215 226 234 245 264 270 290 12 196 273 309 300 300 310 286 268 290 307 309 308 311 313 318 323 322 311 301 263 193 185 195 193 179 171 169 170 170 166 161 157 155 151 150
202 210 218 216 231 253 265 205 209 247 282 291 291 290 292 288 291 300 304 306 311 315 317 317 321 317 314 305 246 219 214 201 173 164 164 165 162 158 156 152 152 151 150 150
212 207 211 214 232 257 243 235 256 267 278 283 283 285 290 294 295 301 303 305 308 307 307 304 303 309 314 312 275 244 238 167 161 161 162 160 154 155 156 155 154 152 154 155
248 220 222 252 260 266 269 269 275 275 276 286 288 288 297 295 293 299 301 303 304 305 299 296 297 299 301 311 301 249 215 172 161 164 162 157 155 155 156 154 157 159 162 160
227 219 233 252 267 281 269 260 270 282 285 288 290 286 286 290 292 292 294 296 298 300 291 281 276 279 282 292 296 258 200 170 166 163 162 160 157 155 154 152 159 162 169 170
208 211 225 250 248 252 271 274 279 283 284 286 289 291 289 284 289 289 288 288 290 292 287 280 274 271 273 277 276 256 203 174 170 167 164 162 157 153 151 144 125 116 143 152
Height
1442 1445 1441 1438 1437 1436 1435 1434 1431 1426 1423 1423 1420 1415 1410 1409 1409 1408 1408 1409 1410 1410 1413 1418 1421 1425 1430 1434 1439 1443 1447 1452 1457 1462 1467 1471 1476 1481 1485 1490 1495 1499 1503 1507
1444 1441 1436 1434 1434 1434 1434 1434 1430 1425 1421 1420 1417 1411 1406 1403 1402 1401 1402 1402 1404 1405 1408 1412 1416 1419 1423 1428 1433 1437 1441 1446 1451 1456 1462 1467 1472 1477 1482 1487 1491 1495 1499 1503
1443 1437 1433 1432 1432 1433 1432 1432 1428 1425 1420 1417 1416 1408 1400 1396 1395 1394 1395 1396 1397 1399 1402 1405 1409 1413 1417 1421 1425 1430 1435 1440 1445 1451 1458 1464 1469 1474 1478 1482 1486 1490 1495 1499
1439 1435 1432 1431 1430 1429 1428 1424 1423 1423 1423 1420 1418 1414 1398 1393 1391 1389 1389 1390 1391 1393 1396 1399 1402 1406 1410 1414 1419 1424 1429 1434 1440 1446 1451 1456 1460 1465 1469 1474 1480 1486 1491 1495
1438 1433 1432 1430 1426 1425 1424 1421 1421 1421 1422 1422 1417 1418 1401 1391 1388 1385 1384 1384 1385 1387 1389 1393 1396 1399 1404 1408 1413 1418 1423 1428 1434 1439 1444 1450 1455 1460 1466 1471 1477 1482 1486 1491
1435 1431 1430 1427 1424 1422 1421 1421 1420 1420 1421 1423 1414 1415 1401 1391 1385 1381 1379 1379 1380 1381 1384 1387 1390 1393 1397 1402 1406 1411 1416 1421 1427 1432 1438 1443 1449 1454 1460 1465 1471 1476 1481 1485
1437 1431 1427 1425 1425 1422 1422 1427 1429 1428 1426 1420 1408 1407 1396 1384 1379 1377 1375 1375 1375 1377 1379 1381 1384 1387 1390 1395 1399 1404 1409 1414 1419 1425 1430 1436 1442 1448 1453 1459 1465 1470 1474 1479
1446 1438 1429 1426 1426 1425 1423 1426 1430 1428 1423 1413 1405 1401 1389 1379 1376 1374 1373 1372 1372 1373 1374 1376 1378 1381 1384 1387 1391 1396 1401 1406 1412 1418 1423 1429 1436 1442 1447 1453 1458 1463 1468 1473
1448 1440 1429 1426 1423 1424 1424 1424 1423 1425 1422 1417 1407 1398 1386 1377 1374 1373 1372 1371 1371 1370 1370 1371 1373 1375 1377 1380 1384 1388 1393 1398 1404 1410 1416 1422 1428 1434 1440 1446 1452 1458 1463 1468
1448 1445 1432 1427 1423 1422 1423 1422 1425 1426 1423 1415 1404 1397 1390 1379 1375 1373 1372 1370 1369 1368 1367 1367 1367 1369 1371 1373 1376 1381 1386 1391 1396 1403 1409 1415 1421 1427 1433 1440 1445 1451 1456 1462
1447 1447 1437 1431 1427 1424 1424 1424 1424 1425 1423 1418 1408 1394 1380 1378 1375 1375 1372 1370 1368 1365 1363 1362 1362 1363 1365 1367 1370 1374 1378 1384 1389 1395 1401 1408 1414 1420 1427 1433 1439 1445 1450 1456
1446 1446 1441 1433 1424 1422 1423 1423 1424 1428 1424 1419 1413 1396 1377 1376 1375 1374 1372 1369 1366 1363 1360 1359 1358 1358 1359 1361 1363 1367 1371 1376 1382 1388 1394 1401 1407 1414 1420 1426 1432 1438 1444 1449
1446 1445 1443 1434 1431 1428 1426 1423 1423 1424 1423 1419 1413 1393 1376 1375 1374 1373 1371 1367 1364 1361 1358 1356 1354 1354 1354 1355 1358 1361 1365 1369 1375 1381 1388 1394 1400 1406 1413 1419 1425 1432 1438 1443
1442 1443 1444 1440 1432 1431 1428 1423 1422 1423 1420 1414 1405 1391 1379 1377 1375 1372 1370 1367 1364 1360 1357 1354 1351 1350 1350 1351 1353 1356 1359 1364 1369 1375 1381 1387 1393 1400 1406 1413 1419 1425 1431 1437
1441 1441 1438 1432 1427 1426 1422 1418 1416 1416 1412 1409 1397 1391 1381 1378 1376 1373 1370 1366 1363 1359 1355 1352 1349 1348 1347 1347 1349 1351 1355 1360 1364 1369 1375 1380 1387 1394 1400 1407 1413 1419 1425 1431
1440 1438 1435 1429 1422 1420 1415 1409 1407 1405 1403 1399 1394 1387 1379 1376 1374 1371 1369 1366 1362 1359 1355 1351 1348 1346 1345 1344 1345 1348 1351 1355 1359 1364 1369 1375 1381 1388 1394 1401 1407 1414 1420 1425
1439 1438 1435 1428 1422 1417 1409 1399 1397 1396 1392 1392 1388 1382 1377 1374 1372 1369 1367 1365 1362 1358 1354 1350 1347 1345 1343 1342 1342 1344 1347 1351 1355 1359 1364 1370 1376 1382 1388 1395 1402 1408 1414 1420
1434 1434 1433 1429 1426 1421 1399 1391 1390 1389 1387 1385 1382 1378 1375 1372 1369 1367 1365 1362 1359 1355 1352 1348 1345 1343 1341 1340 1340 1341 1344 1347 1351 1355 1360 1365 1371 1377 1383 1390 1396 1402 1408 1414
1427 1430 1431 1429 1425 1412 1396 1390 1388 1388 1383 1379 1378 1374 1372 1369 1365 1362 1361 1359 1357 1353 1350 1347 1344 1342 1340 1338 1338 1338 1341 1344 1347 1351 1356 1361 1366 1372 1378 1384 1390 1397 1403 1409
1423 1425 1427 1425 1422 1408 1392 1386 1383 1385 1383 1377 1375 1373 1370 1368 1368 1362 1358 1356 1353 1350 1347 1344 1342 1339 1338 1337 1336 1337 1338 1341 1344 1348 1353 1358 1363 1368 1374 1380 1386 1392 1399 1405
1423 1423 1422 1419 1415 1401 1389 1385 1383 1389 1384 1376 1373 1371 1369 1368 1366 1362 1357 1354 1351 1348 1345 1342 1340 1338 1336 1335 1335 1335 1336 1338 1342 1346 1350 1355 1360 1365 1370 1376 1382 1388 1395 1401
1417 1418 1416 1413 1411 1400 1384 1384 1385 1382 1377 1374 1372 1370 1367 1364 1361 1358 1355 1351 1348 1344 1342 1340 1338 1336 1335 1334 1334 1334 1335 1336 1340 1343 1347 1352 1357 1362 1367 1373 1379 1385 1391 1397
1409 1405 1403 1402 1394 1384 1381 1380 1378 1376 1375 1372 1369 1367 1365 1361 1357 1355 1351 1348 1345 1342 1339 1338 1336 1334 1333 1333 1333 1332 1333 1335 1337 1341 1345 1349 1354 1359 1364 1370 1375 1381 1387 1393
1400 1396 1397 1394 1384 1380 1378 1376 1375 1373 1371 1368 1366 1364 1361 1358 1354 1351 1348 1345 1342 1339 1337 1335 1334 1332 1331 1331 1331 1331 1332 1333 1336 1338 1342 1346 1351 1356 1361 1367 1372 1377 1383 1388
1393 1392 1391 1387 1380 1377 1373 1372 1370 1368 1366 1364 1362 1360 1357 1354 1351 1348 1344 1341 1339 1336 1334 1333 1331 1329 1328 1328 1328 1329 1330 1332 1334 1336 1339 1344 1348 1353 1358 1363 1369 1374 1380 1384
1384 1385 1385 1378 1373 1373 1369 1367 1366 1364 1361 1359 1357 1354 1351 1349 1346 1343 1340 1338 1335 1332 1330 1328 1327 1326 1326 1325 1325 1326 1327 1329 1331 1334 1337 1341 1345 1350 1355 1360 1366 1373 1378 1384